Wind_Speed
15 16 16 15 15 16 16 16 16 16 16 15 15 16 16 15 15 15 15 14 14 14 13 14 14 14 14 14 14 14 14 15 15 15 15 15 14 15
17 17 17 17 17 17 17 17 17 17 17 17 17 17 16 17 16 16 16 15 16 15 14 14 15 15 15 15 15 15 16 16 16 17 17 17 16 16
17 17 18 19 18 18 19 19 19 19 19 18 18 18 17 18 18 18 17 17 17 16 16 16 16 16 17 16 16 17 17 17 17 18 18 18 19 18
18 19 19 19 19 19 20 20 20 20 20 20 19 20 19 20 20 19 19 18 18 18 18 18 18 18 19 18 19 19 18 19 19 19 20 20 20 20
20 20 20 20 21 20 20 21 21 22 21 21 21 22 22 22 22 22 21 20 20 20 20 20 20 20 20 20 20 20 20 21 21 21 21 21 21 21
21 21 21 21 21 22 22 23 23 22 22 22 23 23 23 23 23 23 23 23 23 22 22 23 23 22 22 23 23 23 23 23 23 23 24 23 22 22
22 22 22 22 22 23 23 23 24 24 25 25 24 24 25 24 24 24 24 24 24 24 25 25 26 26 26 25 25 25 25 25 25 25 26 25 24 24
23 24 24 23 23 24 24 25 26 27 26 26 26 26 27 27 27 26 26 26 26 27 27 26 27 28 28 28 27 27 27 27 28 28 28 28 27 26
24 25 24 24 24 25 25 26 26 26 26 26 26 26 27 27 27 28 28 28 28 28 29 29 29 30 30 30 30 29 30 29 29 29 29 29 29 29
25 25 25 24 24 25 25 26 26 26 26 26 26 27 27 27 28 28 28 29 29 29 30 30 30 31 31 32 32 32 31 31 31 31 30 29 30 30
26 26 26 26 26 26 27 27 27 26 27 28 28 28 28 28 29 29 30 30 30 31 31 31 31 32 32 33 33 33 33 33 33 33 33 31 30 31
27 27 27 27 27 27 27 27 27 27 28 28 29 28 29 29 30 31 31 31 31 32 32 32 32 33 33 33 33 33 34 34 34 34 34 34 33 32
28 27 27 28 27 27 27 27 28 28 28 29 29 29 30 30 31 32 32 31 31 31 32 32 32 32 32 32 33 33 33 34 34 34 34 34 34 34
29 28 28 27 27 28 28 28 29 29 29 30 30 31 31 32 32 32 32 33 33 32 33 32 32 32 33 33 33 33 33 33 34 35 35 35 35 35
29 29 28 28 28 28 28 29 29 29 30 31 32 32 32 32 32 32 33 33 33 33 34 34 34 33 33 32 33 33 34 34 34 35 36 36 36 36
29 29 29 29 29 29 29 29 30 30 31 32 32 32 32 32 33 33 33 34 34 33 34 34 34 34 33 33 33 34 34 34 35 35 36 36 36 37
28 28 28 28 29 30 30 30 31 31 32 32 33 33 32 32 33 33 34 34 34 33 34 35 35 34 34 34 34 34 35 35 35 35 35 36 37 37
29 29 30 30 30 30 31 32 32 32 33 34 33 33 34 33 34 34 34 34 34 34 34 34 34 34 34 34 34 34 34 35 35 36 36 36 36 37
29 30 30 30 31 31 31 32 31 32 33 34 34 35 35 34 34 35 35 35 35 35 35 34 34 34 34 33 33 34 34 34 34 34 35 35 36 36
30 30 30 30 31 31 31 32 32 33 33 34 35 36 36 35 34 34 34 35 35 34 34 34 33 34 33 33 33 33 33 33 34 34 34 35 35 35
31 31 31 31 32 31 31 31 32 33 34 34 34 34 35 34 34 34 34 35 35 34 33 33 33 33 33 32 32 31 32 32 32 33 33 33 33 33
31 31 31 32 32 32 32 32 32 33 33 34 34 34 34 34 34 34 34 34 34 34 34 33 33 33 32 31 31 31 31 32 32 32 32 32 32 31
31 31 32 32 33 33 33 33 33 33 33 33 33 33 34 34 35 34 33 34 34 34 33 33 33 32 31 31 31 31 31 30 30 31 32 32 31 30
Wind_Direction
287 286 285 285 285 284 284 285 286 285 285 284 284 282 284 283 281 281 281 276 277 277 272 269 270 271 272 272 269 266 267 267 263 263 264 263 264 264
290 289 286 284 283 282 283 283 283 282 282 283 282 280 279 278 279 279 279 277 274 275 273 272 273 271 271 271 269 267 265 265 264 263 265 265 265 264
291 289 286 284 284 281 280 280 280 280 279 280 279 279 277 275 276 275 275 276 274 274 274 274 274 272 270 268 268 267 266 265 264 264 265 266 266 264
289 289 287 286 286 284 281 281 280 277 276 277 277 277 277 275 275 274 274 274 272 271 272 272 273 272 269 267 266 265 264 265 265 265 265 265 267 265
288 287 285 285 288 285 285 283 283 280 276 276 275 276 276 276 274 272 272 272 271 270 270 270 271 271 270 267 266 264 264 264 266 266 264 263 265 265
289 287 286 285 286 285 285 284 283 283 280 278 277 277 278 277 276 271 271 271 271 270 270 269 269 269 269 268 266 266 265 265 266 266 266 264 263 264
290 289 287 285 286 287 286 284 283 284 283 280 277 277 277 278 278 273 273 273 272 271 270 270 268 268 268 267 266 266 266 266 266 266 267 266 264 264
292 290 288 286 286 287 287 285 284 285 285 280 278 277 276 277 279 277 275 276 274 272 271 270 269 268 268 267 267 267 267 265 265 265 266 265 265 265
294 291 289 287 285 283 284 285 286 285 284 281 281 280 279 279 279 277 276 276 274 273 272 271 270 270 270 268 267 266 265 265 266 266 266 265 265 265
294 292 291 290 288 286 285 285 285 285 284 283 282 279 278 279 278 278 276 276 275 274 273 271 270 270 270 269 267 266 265 263 263 264 265 266 265 263
293 293 292 291 289 288 287 285 284 284 283 282 281 279 277 277 278 278 277 277 275 274 274 273 271 269 270 269 267 266 265 263 262 262 262 263 264 262
293 292 291 290 290 289 288 286 284 284 284 283 282 280 278 277 279 278 277 277 276 275 274 273 272 271 269 267 267 266 265 264 262 261 261 262 261 261
292 292 291 290 289 289 288 287 286 284 283 282 280 280 280 280 280 279 278 277 277 277 275 273 272 271 270 268 267 267 267 265 264 262 261 261 261 260
294 293 292 291 291 290 289 288 287 286 284 282 282 280 280 281 281 280 279 278 277 277 275 274 273 272 272 270 267 267 266 266 265 263 262 260 260 260
296 294 292 292 291 290 289 287 287 287 286 285 283 283 282 282 282 283 281 279 278 277 276 276 274 273 273 272 269 267 266 266 266 264 263 262 260 259
296 295 293 292 292 290 289 287 286 286 286 285 285 284 283 283 283 283 282 280 278 276 276 276 275 275 274 273 270 268 267 266 265 264 262 262 261 259
298 297 296 295 294 292 290 289 289 288 287 286 286 285 284 284 285 284 283 281 280 278 277 276 275 275 274 273 271 269 268 267 266 264 262 263 263 260
300 299 296 296 294 293 292 291 290 289 289 289 288 287 286 286 285 284 283 281 280 279 278 277 275 273 272 272 272 270 268 268 267 266 265 264 263 262
301 300 298 296 295 293 291 291 291 290 290 291 290 289 288 288 286 284 283 281 280 280 279 277 276 274 272 270 269 268 267 267 267 266 266 266 265 263
301 301 299 298 297 296 293 291 292 292 291 291 290 289 287 287 287 285 284 283 282 281 279 276 276 275 274 272 268 266 266 266 266 266 266 266 265 265
300 300 300 298 297 296 295 295 294 293 292 291 290 289 287 286 286 286 286 286 284 282 280 278 277 276 274 272 268 266 266 267 267 267 266 266 266 264
300 300 300 299 299 298 297 296 294 294 293 292 291 290 287 285 286 287 286 286 285 283 281 279 277 275 274 273 271 268 269 269 268 267 268 269 267 265
299 299 300 300 299 299 299 297 295 294 293 292 291 290 289 287 286 287 287 287 285 283 282 279 277 276 274 272 271 271 271 270 268 267 268 268 266 264
Height
5860 5859 5858 5856 5855 5854 5853 5852 5851 5850 5848 5847 5846 5845 5844 5843 5842 5842 5841 5840 5840 5839 5838 5838 5838 5837 5837 5836 5836 5835 5835 5835 5835 5835 5835 5835 5835 5835
5855 5854 5853 5852 5850 5849 5848 5847 5846 5845 5843 5842 5841 5840 5839 5838 5837 5837 5836 5836 5835 5834 5834 5834 5833 5833 5832 5832 5832 5831 5831 5831 5831 5831 5830 5830 5830 5830
5851 5849 5848 5846 5845 5843 5842 5841 5840 5839 5838 5837 5836 5835 5834 5833 5833 5832 5831 5831 5830 5830 5829 5829 5828 5828 5827 5827 5827 5826 5826 5826 5826 5825 5825 5825 5825 5825
5845 5844 5842 5841 5839 5838 5837 5835 5834 5833 5832 5831 5830 5829 5829 5828 5827 5827 5826 5825 5824 5824 5824 5823 5823 5822 5822 5822 5821 5821 5821 5820 5820 5820 5820 5820 5819 5819
5840 5838 5836 5835 5834 5832 5830 5829 5828 5826 5825 5825 5824 5823 5822 5822 5821 5820 5820 5819 5818 5818 5818 5817 5816 5816 5816 5815 5815 5815 5815 5814 5814 5814 5813 5813 5813 5813
5833 5832 5830 5829 5828 5826 5824 5823 5821 5820 5819 5818 5817 5816 5815 5815 5814 5813 5813 5812 5811 5811 5810 5810 5810 5809 5809 5808 5808 5808 5808 5807 5807 5807 5807 5807 5807 5807
5827 5826 5824 5823 5821 5819 5818 5817 5815 5813 5812 5811 5810 5809 5808 5807 5806 5805 5805 5804 5804 5803 5803 5802 5802 5802 5801 5801 5800 5800 5800 5800 5800 5800 5799 5799 5800 5800
5821 5819 5817 5816 5814 5813 5811 5809 5808 5806 5805 5803 5802 5801 5799 5799 5798 5797 5796 5796 5796 5795 5794 5794 5793 5793 5792 5792 5792 5792 5792 5792 5792 5792 5792 5792 5792 5792
5814 5812 5810 5808 5806 5805 5803 5801 5800 5798 5797 5795 5794 5792 5791 5790 5789 5788 5787 5787 5787 5786 5785 5785 5784 5784 5783 5783 5783 5783 5783 5783 5783 5783 5783 5783 5783 5784
5806 5804 5802 5800 5798 5797 5795 5793 5791 5790 5788 5787 5786 5784 5783 5781 5780 5779 5778 5778 5777 5776 5775 5775 5774 5773 5773 5773 5772 5772 5773 5773 5773 5774 5773 5774 5774 5774
5799 5796 5794 5792 5790 5788 5786 5785 5783 5781 5780 5779 5777 5776 5774 5772 5771 5770 5769 5768 5767 5766 5765 5764 5764 5763 5762 5762 5762 5762 5762 5762 5763 5763 5763 5764 5764 5765
5791 5788 5786 5784 5782 5779 5777 5776 5775 5773 5771 5770 5768 5766 5765 5763 5761 5760 5759 5758 5756 5755 5754 5753 5752 5752 5752 5752 5751 5751 5751 5751 5751 5752 5753 5753 5754 5755
5782 5780 5778 5775 5773 5771 5769 5767 5766 5764 5763 5761 5759 5757 5755 5754 5752 5750 5748 5747 5746 5744 5744 5743 5742 5741 5741 5741 5741 5740 5740 5740 5740 5741 5742 5742 5743 5744
5773 5771 5769 5767 5765 5763 5761 5759 5757 5755 5754 5752 5750 5748 5746 5744 5742 5740 5738 5736 5735 5734 5733 5732 5731 5730 5730 5730 5729 5729 5729 5729 5729 5730 5730 5731 5732 5733
5765 5762 5760 5758 5756 5754 5752 5750 5748 5746 5745 5743 5740 5738 5736 5734 5732 5730 5728 5726 5725 5723 5722 5720 5719 5719 5718 5718 5718 5717 5718 5718 5718 5718 5719 5719 5720 5722
5757 5754 5752 5749 5748 5745 5743 5741 5739 5737 5735 5733 5730 5728 5726 5723 5721 5719 5718 5716 5714 5713 5711 5709 5708 5707 5707 5706 5706 5706 5706 5706 5706 5707 5707 5708 5709 5710
5749 5746 5744 5741 5739 5737 5734 5732 5730 5727 5725 5722 5720 5718 5715 5713 5711 5708 5706 5704 5703 5702 5700 5699 5697 5696 5695 5695 5694 5695 5694 5694 5694 5694 5695 5696 5696 5697
5741 5739 5736 5733 5730 5728 5725 5722 5720 5717 5714 5712 5709 5707 5704 5702 5700 5697 5695 5693 5692 5690 5689 5687 5686 5685 5684 5683 5683 5682 5682 5682 5682 5682 5683 5684 5685 5685
5733 5730 5727 5724 5721 5718 5716 5713 5710 5707 5704 5701 5699 5696 5693 5691 5688 5686 5684 5682 5680 5679 5677 5675 5674 5672 5672 5672 5672 5670 5670 5670 5670 5670 5671 5672 5673 5674
5725 5722 5719 5715 5712 5709 5706 5703 5700 5697 5694 5691 5688 5685 5682 5679 5677 5674 5672 5670 5669 5667 5665 5663 5662 5661 5660 5660 5660 5659 5659 5659 5659 5659 5659 5660 5660 5662
5716 5713 5710 5706 5703 5700 5696 5693 5690 5687 5684 5680 5677 5674 5671 5668 5666 5664 5661 5659 5657 5655 5654 5652 5650 5649 5648 5647 5647 5648 5648 5647 5647 5647 5648 5648 5649 5650
5708 5704 5701 5697 5694 5690 5687 5683 5680 5676 5673 5670 5666 5663 5660 5658 5655 5652 5650 5648 5646 5644 5642 5641 5639 5638 5637 5636 5636 5636 5636 5636 5636 5636 5636 5638 5638 5639
5698 5695 5691 5688 5684 5681 5677 5673 5669 5666 5662 5659 5656 5653 5649 5647 5644 5641 5639 5636 5634 5633 5631 5630 5628 5627 5626 5625 5625 5625 5625 5625 5625 5625 5626 5626 5627 5628